Regional Weather Roundup
Issued by NWS Upton, NY

Current Version | Previous Version | Text Only | Print | Product List | Glossary On
Versions: 1 2 3 4 5 6 7 8 9 10 11 12 13 14 15 16 17 18 19 20 21 22 23 24 25 26 27 28 29 30 31 32 33 34 35 36 37 38 39 40 41 42 43 44 45 46
000
ASUS41 KOKX 262207
RWROKX

REGIONAL WEATHER ROUNDUP
NATIONAL WEATHER SERVICE NEW YORK NY
600 PM EDT SUN APR 26 2015

NOTE: "FAIR" INDICATES FEW OR NO CLOUDS BELOW 12,000 FEET WITH NO
SIGNIFICANT WEATHER AND/OR OBSTRUCTIONS TO VISIBILITY.

NYZ071-072-176-178-NJZ106-104-262300-
NEW YORK CITY METRO AREA


CITY           SKY/WX    TMP DP  RH WIND       PRES   REMARKS
CENTRAL PARK   CLOUDY    60  26  27 VRB6      29.67S
LAGUARDIA APRT PTSUNNY   59  28  30 NW7       29.65S
KENNEDY INTL   PTSUNNY   52  36  54 S13       29.67S
NEWARK/LIBERTY PTSUNNY   61  26  26 NW15      29.65S
BRNX BOT. GARD   N/A     59  28  31 NW3       29.65F
TETERBORO      CLOUDY    61  29  29 NW10      29.64S
$$

NYZ177-179-078>081-262300-
LONG ISLAND NEW YORK

CITY           SKY/WX    TMP DP  RH WIND       PRES   REMARKS
FARMINGDALE    PTSUNNY   56  32  40 SW13      29.65S
ISLIP          PTSUNNY   56  33  42 SW7       29.63S
SHIRLEY        CLOUDY    54  37  52 SW7       29.66S
WESTHAMPTON    CLOUDY    52  32  46 SW9       29.66S
MONTAUK POINT    N/A     51  36  56 SW8       29.66S
$$

NYZ052-065-067-262300-
HUDSON VALLEY

CITY           SKY/WX    TMP DP  RH WIND       PRES   REMARKS
WHITE PLAINS   PTSUNNY   57  28  33 NW6       29.64S
NEWBURGH       NOT AVBL
MONTGOMERY     CLOUDY    59  30  33 N14       29.66R
POUGHKEEPSIE   CLOUDY    57  29  34 N7        29.65R
ALBANY         CLOUDY    55  29  36 NW8       29.67R
$$

NJZ001-105-106-008-010-013-015-019>022-104-262300-
NEW JERSEY

CITY           SKY/WX    TMP DP  RH WIND       PRES   REMARKS
NEWARK/LIBERTY PTSUNNY   61  26  26 NW15      29.65S
TETERBORO      CLOUDY    61  29  29 NW10      29.64S
CALDWELL       CLOUDY    59  27  29 NW9       29.66S
MORRISTOWN     PTSUNNY   59  27  29 N12G18    29.67R
SOMERVILLE     CLOUDY    60  27  28 NW12      29.65R
SUSSEX         MOSUNNY   57  27  31 NW9       29.69R
ANDOVER          N/A     56  27  32 N10G20    29.68R
TRENTON        CLOUDY    60  27  28 NW5       29.66S
MILLVILLE      MOSUNNY   58  32  37 S6        29.67F
ATLANTIC CITY  SUNNY     55  30  38 S9        29.69S
WRIGHTSTOWN    CLOUDY    59  30  33 W3        29.65S
TOMS RIVER     MOSUNNY   55  28  35 S9        29.68S
BELMAR         MOSUNNY   55  28  35 S9        29.67S
$$

PAZ047>061-062-071-262300-
EASTERN PENNSYLVANIA

CITY           SKY/WX    TMP DP  RH WIND       PRES   REMARKS
PHILADELPHIA   PTSUNNY   62  27  26 S3        29.67S
ALLENTOWN      PTSUNNY   59  29  31 N13       29.68R
SCRANTON       CLOUDY    52  26  36 N13       29.71S
$$

CTZ002-004>006-009-010-012-RIZ004-006-007-MAZ004-011-015-262300-
SOUTHERN NEW ENGLAND
 IN CT

CITY           SKY/WX    TMP DP  RH WIND       PRES   REMARKS
BRADLEY INTL   PTSUNNY   57  28  33 NW9       29.64R
HARTFORD       CLOUDY    56  29  35 VRB6      29.65R
DANBURY        CLOUDY    56  27  32 VRB7      29.66R
WTRBRY/OXFORD  CLOUDY    54  30  40 N13       29.66R
BRIDGEPORT     CLOUDY    60  29  30 N9        29.64S
MERIDEN        CLOUDY    57  28  33 N10       29.65R
NEW HAVEN      CLOUDY    57  31  37 CALM      29.64S
CHESTER        CLOUDY    55  30  38 N10G17    29.64S
GROTON         CLOUDY    53  32  44 W7        29.63S
WILLIMANTIC    CLOUDY    57  29  34 NW10      29.64S

 IN RI

CITY           SKY/WX    TMP DP  RH WIND       PRES   REMARKS
PROVIDENCE     PTSUNNY   57  29  34 NW3       29.63S
BLOCK ISLAND   CLOUDY    48  36  61 SW15      29.64F
WESTERLY       CLOUDY    50  37  61 S7        29.64F

 IN MA

CITY           SKY/WX    TMP DP  RH WIND       PRES   REMARKS
BOSTON         CLOUDY    55  28  35 NW10      29.62S
WORCESTER      CLOUDY    52  27  38 NW10      29.62S
WESTFIELD      CLOUDY    57  29  34 NW9       29.64R
PROVINCETOWN   MOSUNNY  N/A N/A N/A SW9       29.63S
NANTUCKET      PTSUNNY   48  36  63 W10       29.64S
$$

ANZ330-335-338-340-345-350-353-355-262300-
COASTAL MARINE OBSERVATIONS


STATION/POSITION TIME  SKY/WX   TEMP    WIND        PRES    VSBY  WAVE
                                AIR SEA DIR/SP/G                  HT/PER
                 (UTC)          (F)     (DEG/KT/KT) (MB)    (MI)  (FT/S)
NY HARB ENTRANCE 2150            48 47  210/ 10/ 10 1004.3          1/11
4S FIRE IS       2103               45                N/A           1/12
20S FIRE ISLAND  2150            47 46  180/  6/  6 1004.6          1/11
23SW MTP         2150            45 44  240/  8/ 10 1004.1          1/11
HUDSON CANYON    NOT AVBL
EXECUTION ROCKS  NOT AVBL
WESTERN LI SOUND NOT AVBL
CENTRAL LI SOUND NOT AVBL
EASTERN LI SOUND 2100            48     270/  8/ 10   N/A
ROBBINS REEF     2100            54     150/ 11/ 11 1002.8
$$


>>>>>>>>>>>>>>>>>>>>>>>>>>>> KEY <<<<<<<<<<<<<<<<<<<<<<<<<<<
>                                                          <
>     SKY/WX - SKY CONDITION/PRESENT WEATHER               <
>     TMP    - TEMPERATURE IN FAHRENHEIT                   <
>     DP     - DEWPOINT IN FAHRENHEIT                      <
>     RH     - RELATIVE HUMIDITY IN PERCENT                <
>     WIND   - DIRECTION AND SPEED IN MPH                  <
>     PRES   - MEAN SEA LEVEL PRESSURE IN INCHES OF HG     <
>     WCI    - WIND CHILL INDEX                            <
>     VSB    - VISIBILITY IN MILES                         <
>     HX     - HEAT INDEX                                  <
>     TC     - TEMPERATURE IN CELSIUS                      <
>     VRB    - VARIABLE WIND DIRECTION                     <
>                                                          <
>>>>>>>>>>>>>>>>>>>>>>>>>>>> KEY <<<<<<<<<<<<<<<<<<<<<<<<<<<




USA.gov is the U.S. government's official web portal to all federal, state and local government web resources and services.